Wind_Gust
12 13 13 14 14 15 14 15 15 15 15 16 16 16 17 18 19 19 20 21 21 21 22 21 22 22 22 23 23 23 21 21 22 17 15 28 10 10 14 14 17 14 10 7 9 9 12 12 14 14 15 10 12 13 15 17 15 9 14 12 13 14 11 13 6 8 5 10 6 9 3 4 5 12 9 9 2 17 19 21 18 16 16 17 22 23 22 22
13 13 14 14 14 15 15 15 15 14 15 15 16 17 17 18 19 20 21 21 22 22 22 21 22 23 23 23 23 23 21 18 21 21 32 16 13 12 12 16 17 15 10 9 13 14 13 14 15 15 15 13 8 15 10 16 13 12 10 12 16 9 17 8 5 6 4 2 7 4 10 10 6 6 6 10 9 15 18 15 15 20 16 17 23 24 21 19
14 14 14 14 15 15 15 15 15 16 15 16 15 16 16 17 18 20 21 21 22 22 22 22 23 23 23 23 23 21 20 19 17 22 24 25 17 13 14 14 15 14 14 14 15 15 17 16 17 16 13 12 12 15 15 17 16 11 8 13 18 19 16 12 9 10 10 10 10 10 6 3 6 10 5 6 10 14 16 18 14 17 16 19 19 21 21 18
15 15 15 14 15 15 15 16 16 16 15 16 16 15 16 16 17 18 20 21 22 22 22 22 23 23 23 23 22 22 17 18 15 8 12 17 21 17 14 14 14 15 11 13 14 18 15 17 13 16 13 13 12 17 15 12 18 12 13 17 16 10 17 12 5 12 9 9 12 8 8 9 8 5 10 9 12 11 19 18 23 21 18 18 18 19 19 20
15 15 15 15 15 15 16 16 16 16 16 16 16 15 16 16 17 18 19 21 21 22 22 22 23 22 23 23 21 17 15 7 10 8 7 9 15 16 13 14 13 11 12 11 13 18 20 18 17 14 13 12 14 9 13 13 17 7 16 18 17 18 15 7 12 10 11 8 1 2 8 9 6 4 4 9 13 9 14 16 19 23 20 22 18 15 18 17
15 15 16 15 15 16 16 17 17 17 17 16 16 16 15 16 17 18 19 20 21 21 21 21 22 22 23 24 22 14 7 8 7 10 10 10 11 11 12 10 11 8 9 12 14 13 13 14 16 13 13 10 10 11 9 13 10 16 13 10 10 11 12 9 7 10 6 6 6 6 6 11 7 6 5 9 12 11 14 19 20 20 18 18 16 17 16 15
15 16 16 16 16 16 17 16 18 18 18 18 17 16 16 16 17 18 19 20 21 21 20 20 21 22 22 22 19 10 9 24 14 7 12 10 11 14 13 10 9 6 9 13 15 16 12 13 13 9 10 11 13 20 15 15 12 12 16 7 13 13 17 12 12 7 8 5 5 7 5 6 8 11 4 10 8 20 19 19 19 17 18 18 17 14 16 17
15 16 16 17 17 16 16 17 18 18 18 18 18 17 16 16 17 18 19 20 20 21 20 20 19 20 20 20 13 10 12 21 18 11 13 12 14 14 14 9 10 9 11 14 14 16 13 15 14 11 13 13 10 18 11 13 12 15 20 13 16 14 10 10 8 7 2 5 6 7 9 8 5 7 6 11 8 17 21 21 22 20 19 15 13 10 10 15
16 16 16 17 17 17 17 18 18 19 19 19 19 18 17 16 18 19 20 20 21 20 21 20 19 18 16 14 10 13 16 24 15 14 16 13 13 14 13 15 11 12 13 13 15 16 13 12 15 14 13 18 16 17 9 12 14 11 10 8 10 12 8 8 8 6 1 4 3 4 6 9 10 8 11 9 11 11 21 21 23 22 19 18 16 14 11 14
15 16 17 17 17 18 17 18 19 19 20 20 19 18 17 17 17 19 21 21 21 21 20 20 18 16 16 12 11 8 14 19 15 17 16 14 14 12 12 11 15 13 13 13 14 16 17 12 14 10 16 19 14 15 18 11 12 13 10 15 16 13 11 7 9 9 9 9 6 11 8 11 11 13 13 10 16 16 19 24 24 22 21 17 15 12 11 15
15 16 17 17 18 18 18 18 19 20 20 20 20 18 18 17 18 19 20 21 21 21 21 20 17 14 13 12 11 15 8 17 14 16 18 13 14 14 14 13 15 17 15 14 16 15 15 16 12 11 15 16 5 11 12 11 7 9 5 10 9 8 8 9 11 10 2 5 5 7 11 8 12 7 12 10 13 20 16 24 25 22 21 19 17 14 10 10
16 17 17 17 18 18 18 18 19 20 21 21 21 19 18 18 18 19 21 21 21 22 20 17 12 13 13 14 15 26 16 5 19 15 15 15 14 15 13 13 17 17 17 16 15 13 13 13 12 10 12 9 12 9 10 12 15 10 8 10 5 7 17 9 15 11 4 10 7 5 8 11 10 17 14 11 15 13 10 16 22 22 18 15 14 11 10 9
15 16 17 17 18 18 19 19 20 21 21 21 21 21 20 19 19 20 21 22 19 20 17 14 10 10 10 10 22 33 29 20 10 16 13 11 11 11 12 13 18 17 18 16 12 9 8 8 7 9 11 12 9 15 10 16 10 11 9 7 8 10 15 16 15 13 12 13 9 11 14 12 13 15 15 11 16 17 10 20 21 18 17 15 13 11 9 8
15 16 17 17 17 18 19 19 20 21 22 22 22 22 20 19 20 21 22 22 22 20 17 13 11 11 9 18 21 12 21 27 17 16 14 12 14 15 13 13 16 18 15 16 12 11 11 8 4 9 10 13 15 15 21 12 8 7 9 11 11 5 23 17 20 15 18 15 16 8 12 14 11 14 15 17 16 17 10 20 22 18 16 14 13 11 10 9
15 16 17 17 18 19 19 20 20 21 22 23 23 22 21 21 21 22 23 22 19 15 12 6 11 9 7 24 18 28 27 15 16 12 13 16 16 15 16 12 13 13 11 6 11 7 4 11 9 8 11 11 13 14 13 14 6 10 9 10 7 12 24 18 17 19 24 15 14 14 7 21 17 19 15 19 16 17 20 22 19 19 18 17 14 13 10 10
15 16 17 17 18 19 20 20 21 21 21 23 24 23 23 22 21 21 21 19 18 14 13 9 15 16 11 24 20 11 14 13 14 12 13 14 17 15 13 12 8 7 4 7 6 7 4 4 7 6 12 13 14 9 9 11 11 12 10 5 12 13 24 22 24 20 24 15 14 17 12 12 17 13 13 19 24 20 21 21 14 17 14 15 18 12 12 11
15 16 17 18 17 19 20 21 21 21 22 22 24 23 23 23 22 20 18 16 14 13 13 12 11 17 7 11 15 9 23 20 10 14 15 15 15 13 13 11 12 10 7 6 9 4 5 9 5 9 9 13 8 10 8 9 11 13 14 17 14 15 11 17 15 23 24 10 12 12 9 13 19 22 22 25 30 14 21 20 17 20 13 14 13 15 14 12
16 16 17 18 18 19 20 21 21 21 22 21 21 23 28 22 17 16 16 14 15 14 16 19 12 10 32 28 19 22 20 15 18 16 14 15 15 13 13 16 8 11 10 11 10 13 9 10 8 8 5 9 11 9 15 14 14 14 9 13 15 16 16 11 10 16 15 13 15 13 11 18 15 15 16 5 12 12 10 18 24 21 18 17 15 18 16 16
16 17 18 19 18 19 20 21 21 21 20 20 23 24 23 16 13 13 14 12 11 5 7 16 15 15 6 12 29 18 21 18 15 14 18 17 17 15 15 10 9 13 14 10 12 13 11 8 6 7 10 9 14 15 13 14 17 19 16 14 11 11 13 14 18 19 16 10 13 15 15 17 12 8 9 4 13 14 12 10 18 20 17 16 16 15 15 15
16 17 18 20 19 19 20 20 20 21 20 19 20 19 6 8 7 6 11 15 21 19 12 15 29 18 21 18 16 24 13 19 19 16 14 17 15 15 15 15 14 15 13 13 13 17 10 10 10 12 13 13 13 17 16 17 19 21 20 14 9 10 14 20 6 23 13 15 12 13 11 9 10 9 10 5 3 8 12 15 14 18 18 19 18 19 19 18
17 17 19 20 20 20 20 19 19 17 17 18 17 12 10 9 11 8 12 21 26 26 30 20 25 25 25 13 14 17 25 15 13 18 18 14 13 10 17 15 16 13 14 14 14 12 12 10 14 14 16 17 15 14 13 18 19 19 16 11 15 17 16 17 14 21 10 12 8 9 5 5 9 13 13 14 11 6 7 7 10 15 23 17 17 16 20 17
17 18 19 20 20 21 21 20 19 19 13 15 12 12 15 17 12 9 7 19 19 30 29 26 22 27 28 28 24 18 11 18 14 19 16 18 17 18 14 17 16 17 12 15 11 12 11 17 19 18 17 18 19 14 17 18 18 13 13 10 6 13 17 16 7 16 6 8 6 6 4 5 7 7 13 12 10 8 7 12 12 14 18 16 17 17 15 19
18 18 19 20 20 21 21 23 18 17 19 12 14 14 17 21 18 13 13 18 25 22 25 26 25 25 28 29 14 16 16 16 21 18 25 19 16 21 15 19 14 15 17 16 14 8 11 21 22 18 16 15 16 19 15 8 3 3 9 3 8 11 12 12 9 5 13 16 12 6 6 5 5 9 12 13 19 18 9 16 10 16 22 20 23 21 18 17
18 18 19 20 21 20 23 21 22 19 17 19 16 22 17 19 19 13 12 13 16 18 23 26 25 25 25 23 18 10 12 15 15 22 19 26 20 17 19 19 15 18 17 17 18 16 23 18 18 18 20 16 16 14 9 8 8 3 4 8 10 9 13 14 12 15 10 8 8 10 6 6 4 10 14 14 11 8 8 6 14 7 15 15 20 23 22 25
18 18 19 20 21 23 21 24 14 16 10 12 21 25 23 24 22 8 8 11 16 22 16 22 23 24 21 16 15 24 17 15 14 15 27 22 21 20 20 21 18 16 17 17 18 19 21 19 12 25 24 22 24 17 8 10 3 8 5 4 10 14 16 15 15 15 12 14 4 14 9 11 9 12 15 15 14 11 16 15 13 19 9 13 10 17 22 30
18 18 19 19 21 21 23 15 7 15 13 20 16 16 21 20 9 8 6 9 12 14 19 25 26 25 27 24 12 17 12 24 15 17 26 24 17 20 19 19 22 15 19 17 19 22 19 10 12 12 22 17 9 5 4 8 8 6 11 9 11 14 15 15 20 13 7 9 9 8 14 18 10 12 11 17 18 21 17 14 20 21 13 9 13 11 7 27
18 18 18 19 19 19 15 9 18 20 13 9 13 8 8 6 5 4 9 10 9 21 23 13 25 22 17 17 16 10 12 22 15 14 23 23 23 17 15 14 17 16 16 16 18 20 17 12 12 13 9 13 7 8 8 8 10 13 8 15 14 17 17 16 15 12 16 9 12 10 8 9 10 9 9 10 9 9 10 24 26 17 13 17 19 18 14 17
18 18 18 18 18 13 14 23 22 16 15 17 22 15 7 11 5 4 7 7 20 22 24 15 11 11 11 19 16 21 12 7 28 20 15 22 15 18 21 14 16 16 16 11 12 7 17 17 14 14 10 8 14 12 8 12 16 10 11 20 17 8 19 20 9 5 7 3 15 8 7 15 11 11 8 7 16 10 17 22 25 20 17 18 18 20 16 12
18 18 19 18 20 23 20 17 12 16 13 16 21 18 13 7 5 6 8 13 20 24 16 19 11 15 13 19 21 20 21 13 17 20 16 20 20 12 19 18 19 11 14 15 13 12 14 13 16 14 5 7 8 5 7 12 17 12 14 12 11 16 11 8 7 6 10 12 15 8 4 16 15 7 7 9 13 5 18 19 19 17 17 19 21 21 21 22
18 17 18 17 19 15 6 12 19 20 18 20 19 20 9 5 4 8 10 12 15 14 19 12 14 19 16 22 19 21 21 14 11 24 22 23 16 10 18 8 17 17 17 13 18 18 16 10 8 17 16 18 11 12 10 13 15 5 15 16 12 16 4 4 10 10 13 16 7 6 7 8 15 5 8 16 10 6 11 15 17 19 19 20 22 23 20 21
18 19 17 15 16 13 17 14 19 13 18 19 15 10 7 5 10 8 7 19 17 15 17 16 18 21 21 20 18 19 19 14 13 19 20 20 17 15 10 16 14 14 10 9 19 20 19 16 9 6 9 10 7 12 13 15 8 10 8 6 6 13 5 7 7 5 16 18 6 8 10 8 14 12 15 16 16 20 16 14 15 13 15 16 17 16 15 16
19 20 19 19 20 17 13 12 9 19 20 19 13 5 5 9 7 10 15 11 18 20 18 20 22 25 23 20 16 25 23 18 10 24 15 17 8 18 14 10 12 9 9 5 11 14 17 12 8 11 7 10 5 8 8 11 10 4 3 4 3 8 6 11 11 15 14 21 7 8 16 19 8 5 10 17 17 17 13 12 9 10 12 14 19 20 19 14
17 18 24 24 18 18 25 27 23 22 19 18 8 3 6 7 12 18 20 8 11 21 22 21 23 20 20 20 21 24 20 17 18 16 11 20 12 14 14 19 9 13 8 7 10 10 12 9 14 12 13 14 6 7 8 10 10 11 12 8 9 11 9 10 10 16 12 13 8 5 7 9 14 6 8 14 9 10 10 10 11 16 17 16 19 19 21 21
19 21 26 17 19 23 20 15 17 16 16 13 5 7 5 7 15 12 18 16 10 16 17 27 26 17 22 25 17 24 21 15 24 23 18 15 16 10 16 19 17 13 16 3 12 10 6 13 20 15 15 17 18 17 12 12 7 19 11 13 14 12 15 13 13 16 16 10 4 7 5 9 7 8 8 6 8 11 14 16 14 17 16 14 16 20 22 21
23 27 23 21 22 27 25 22 17 17 13 10 6 11 12 19 8 9 13 16 20 15 9 18 20 10 16 19 16 28 19 18 22 19 19 13 15 12 14 16 20 18 11 9 10 10 16 14 9 19 10 24 18 16 15 15 16 8 14 11 10 14 9 17 10 4 3 4 7 5 8 5 13 4 5 6 9 12 15 15 16 16 18 17 20 21 19 19
22 18 13 13 12 14 22 21 17 15 12 7 10 11 17 15 9 9 8 21 19 16 15 11 8 11 6 9 12 14 26 12 24 18 21 18 16 18 14 16 23 19 14 18 9 11 5 10 4 9 12 18 18 18 17 9 10 8 10 17 18 10 9 11 11 11 7 5 11 7 12 15 16 13 13 10 14 16 17 16 18 18 18 18 18 18 17 19
17 18 13 14 20 14 18 19 18 16 10 10 9 12 14 17 22 21 11 19 14 16 9 13 15 13 10 12 11 11 15 7 19 16 12 19 15 18 19 16 15 21 22 13 11 8 10 11 9 13 13 15 9 14 12 16 17 16 13 12 10 15 15 16 14 8 10 11 12 12 9 6 4 10 13 15 16 14 14 16 15 16 18 19 15 16 16 18
19 16 19 22 19 18 20 21 17 10 11 9 11 11 12 18 21 13 11 15 17 6 9 5 5 15 13 14 13 15 18 10 12 13 8 17 10 9 8 15 20 16 20 20 11 9 12 10 9 9 16 12 16 10 10 11 12 12 16 3 7 8 10 9 13 9 5 8 9 8 15 12 9 5 8 15 17 16 16 19 20 22 21 18 15 16 18 18
15 11 14 14 18 22 22 20 14 13 8 12 11 10 15 19 21 8 15 13 11 12 7 7 10 8 12 9 9 19 20 12 14 7 8 5 12 12 15 16 14 19 21 10 16 17 6 9 11 3 10 10 12 13 9 6 13 13 8 15 5 9 8 10 12 6 10 6 5 8 16 7 11 11 8 11 13 12 12 16 15 18 20 21 21 21 23 23
11 8 9 5 18 23 20 16 11 11 13 10 10 19 10 20 13 14 9 9 10 8 6 12 16 9 12 13 8 10 18 17 14 9 6 10 11 10 21 16 14 19 20 17 19 19 5 7 9 9 11 10 11 13 7 5 5 8 12 12 10 12 10 11 6 9 8 8 7 8 6 4 5 10 8 8 9 12 13 16 17 18 18 20 21 22 22 24
11 9 15 8 18 19 18 12 14 17 14 11 17 23 22 19 13 10 7 7 10 4 8 11 14 16 11 17 14 12 13 10 10 17 16 7 11 5 14 18 15 15 15 16 19 15 13 13 4 9 10 10 3 10 9 11 13 16 12 10 9 10 12 9 12 11 13 14 12 7 9 5 7 6 8 10 12 15 15 16 15 16 17 16 16 18 21 24
8 10 12 7 19 18 16 12 16 12 16 13 16 15 15 7 5 12 7 4 6 11 12 9 12 10 12 14 15 13 11 7 13 18 17 10 11 12 9 14 16 15 13 11 7 6 7 4 6 4 5 5 13 12 13 12 10 14 19 12 11 8 7 10 7 11 9 11 15 8 12 7 8 5 7 9 12 12 12 16 14 12 13 13 16 18 20 21
10 10 15 14 14 17 12 7 9 13 15 19 19 21 8 9 9 12 7 11 11 7 10 6 9 11 11 12 17 15 13 18 15 12 13 12 12 10 8 12 12 11 8 7 6 9 7 12 8 8 5 9 17 15 18 7 9 10 13 14 14 10 6 8 8 4 7 9 12 8 12 10 13 4 8 10 7 12 17 17 16 15 12 14 17 18 19 18
7 6 9 10 10 16 9 11 9 9 13 16 15 11 17 13 15 7 10 12 10 15 6 5 5 7 11 14 10 9 11 8 14 22 11 7 8 7 10 13 11 10 7 3 9 8 10 7 8 5 8 15 16 15 19 18 20 12 6 11 10 9 6 2 5 5 10 5 4 12 9 6 4 6 11 12 15 18 19 18 18 15 14 14 16 17 19 18
4 7 8 11 9 6 14 9 6 6 10 10 12 6 8 8 9 12 15 10 7 5 7 6 11 10 5 4 9 8 10 8 12 19 14 5 8 4 6 5 11 9 9 9 9 6 13 3 6 6 6 7 7 7 8 12 14 14 8 10 12 12 4 5 5 4 8 4 5 8 9 6 8 10 14 16 16 18 19 19 17 16 16 18 20 20 21 20
6 10 10 12 9 8 12 10 11 9 11 9 4 6 8 4 12 10 14 16 13 15 13 12 11 10 8 11 13 6 8 7 6 4 6 10 11 11 6 12 11 10 8 7 5 9 8 5 5 8 9 10 7 11 9 6 8 8 12 16 13 13 10 7 10 8 8 3 7 2 11 15 12 13 14 16 18 17 17 18 19 20 19 20 18 20 19 20
7 9 14 10 12 10 10 10 14 9 8 6 6 10 11 11 5 9 8 8 8 11 14 9 10 6 7 9 6 9 9 12 18 11 7 14 14 13 14 18 9 9 7 5 4 6 5 6 5 8 11 15 14 13 14 14 11 17 9 10 16 13 10 14 9 6 4 10 3 4 13 17 12 15 15 15 15 17 17 17 17 19 18 19 19 18 18 20
10 9 9 13 15 12 11 12 18 17 20 14 6 8 8 12 6 7 7 7 6 6 7 8 10 8 5 9 6 6 5 9 15 15 19 20 13 9 17 12 12 6 7 7 10 9 4 6 5 6 6 11 16 16 12 10 13 13 18 15 13 12 16 16 10 3 3 5 14 9 7 15 13 13 12 15 16 17 17 16 14 15 17 18 19 20 20 21
9 10 9 10 9 10 20 15 12 17 16 12 8 7 6 8 8 10 10 5 12 12 6 4 7 15 20 11 12 3 5 6 8 12 14 7 10 8 10 9 11 9 7 7 13 11 7 4 7 4 5 4 7 7 11 18 17 22 19 17 17 17 18 17 16 14 15 14 14 15 17 18 13 13 15 16 15 15 14 12 15 18 19 18 19 20 20 22
5 5 10 16 12 19 15 16 10 8 5 6 6 10 13 5 6 14 9 4 7 7 9 4 12 8 15 6 6 10 9 8 8 7 4 4 6 6 6 6 3 2 6 8 6 11 10 6 7 5 3 4 6 13 20 22 20 23 20 19 16 15 17 16 17 17 12 14 13 15 16 16 14 15 16 16 16 16 16 17 18 17 18 19 19 19 20 20
9 8 5 14 11 17 18 6 9 6 7 4 3 4 10 12 7 10 14 15 5 8 11 11 13 12 9 21 18 14 8 10 5 5 5 4 5 5 10 7 4 4 3 9 4 3 6 5 3 5 6 3 6 20 20 20 24 23 17 18 16 14 15 15 19 13 12 8 8 11 12 11 12 15 16 17 18 20 18 17 17 18 18 17 17 19 19 20
9 13 13 9 10 9 3 7 5 7 6 5 7 6 9 14 6 14 10 9 12 11 16 9 7 10 9 16 17 13 11 11 10 12 9 9 6 9 3 4 13 11 7 6 10 9 6 4 2 3 5 5 10 15 16 8 6 9 16 15 12 16 17 19 20 20 19 10 9 10 10 11 12 13 17 17 17 18 18 17 15 15 16 16 17 17 18 18
Wind_Speed
9 10 10 10 11 11 11 11 11 12 12 12 12 12 13 13 13 13 14 14 16 16 17 16 17 17 18 18 18 18 17 9 12 8 7 15 7 9 5 8 13 12 8 4 3 3 5 6 7 8 7 5 3 5 6 8 5 3 4 4 7 6 5 6 2 1 1 2 3 3 2 3 4 6 2 4 1 12 10 10 6 9 7 10 13 15 15 14
10 10 10 10 10 11 12 12 12 11 12 12 12 12 13 13 13 13 14 15 16 17 17 17 18 18 18 19 19 18 14 9 11 12 17 10 12 10 9 13 14 13 8 2 6 7 6 7 9 9 7 5 3 5 5 2 5 5 2 3 8 3 7 5 2 4 1 0 2 1 7 3 2 4 2 2 5 10 8 6 9 10 9 10 15 16 14 12
10 11 11 11 11 11 12 12 12 13 12 13 12 12 12 13 13 13 13 14 16 16 17 18 18 18 19 19 19 17 13 8 8 12 15 19 15 11 12 12 13 12 9 6 9 8 9 11 11 10 7 6 5 7 8 4 6 5 3 5 9 8 7 8 1 4 6 6 7 4 3 1 3 3 3 3 7 4 9 9 7 8 7 10 12 14 14 12
11 11 12 11 11 11 12 13 13 13 12 13 13 12 12 12 13 13 13 14 15 16 16 17 18 18 19 19 18 14 9 7 5 4 5 6 17 14 12 12 12 12 6 5 6 10 9 11 9 10 5 7 5 8 6 4 5 3 5 5 4 4 5 7 2 5 5 7 3 4 4 6 4 2 3 6 6 6 9 12 15 15 13 12 12 12 12 12
10 11 12 12 12 12 12 12 13 13 13 13 13 12 12 12 13 13 13 13 14 15 16 17 18 18 19 18 17 9 8 4 2 3 1 7 13 13 11 12 10 8 8 3 5 10 11 11 10 8 6 4 7 5 6 7 8 1 8 11 10 11 9 3 3 8 4 6 1 1 4 3 4 1 2 3 4 6 7 8 13 16 14 15 12 9 10 10
11 11 12 12 12 12 12 13 13 13 13 13 13 13 12 12 13 13 13 13 14 15 15 16 18 18 18 19 13 7 2 2 1 1 6 8 8 10 9 9 9 4 4 4 5 6 8 8 9 5 4 4 4 5 4 6 5 6 6 5 5 6 6 3 3 3 4 3 2 3 2 4 4 2 3 3 2 5 7 10 11 13 13 12 11 11 11 10
11 12 12 13 13 12 12 12 13 14 14 14 14 13 13 12 13 13 13 13 13 15 15 15 16 18 18 18 8 3 3 9 6 4 10 7 8 11 10 8 7 3 5 5 8 7 7 8 6 5 3 4 7 8 9 8 6 5 5 3 7 8 11 7 4 6 5 5 1 1 3 3 3 5 2 3 4 12 11 9 11 11 10 11 11 10 11 12
12 12 13 13 13 13 13 13 14 14 14 15 15 14 13 13 13 14 13 13 14 15 15 16 16 16 16 11 5 3 3 8 12 5 10 9 9 11 11 6 7 5 5 8 7 10 9 8 8 4 5 6 3 8 7 8 7 8 9 8 8 7 5 4 4 4 0 3 2 5 5 5 3 3 3 4 1 12 14 11 12 13 13 10 8 7 8 10
12 12 13 13 14 14 13 13 14 14 15 15 15 15 14 13 13 14 14 13 14 14 15 15 15 14 13 5 3 7 6 10 8 8 10 8 8 8 9 7 6 7 5 6 8 10 8 5 8 7 4 8 10 11 5 6 6 4 5 4 4 6 4 4 4 4 0 0 0 1 3 4 7 6 6 5 5 8 14 13 13 13 11 12 11 10 8 9
12 12 13 13 14 14 14 13 13 14 15 16 16 15 14 14 14 13 14 13 14 14 15 15 14 13 9 4 4 2 8 6 8 10 10 9 9 8 8 7 10 7 6 8 8 10 10 4 8 5 9 9 8 6 7 7 5 8 7 9 11 9 7 5 5 3 5 4 4 6 5 5 6 5 5 6 10 9 13 15 14 15 14 12 9 8 7 10
12 12 13 13 14 14 14 14 14 14 15 16 16 15 15 14 14 13 13 14 14 15 15 14 12 9 5 4 3 6 3 6 4 9 11 10 9 8 9 9 10 7 8 7 10 10 10 11 6 4 4 2 1 5 6 4 4 5 1 4 6 5 4 4 5 5 1 1 2 2 6 5 7 1 6 6 9 9 11 16 14 12 12 11 11 8 6 6
12 12 13 13 14 15 15 14 14 15 16 17 17 16 15 15 14 14 14 14 15 14 14 11 9 4 5 5 5 10 8 2 11 8 9 10 6 9 8 8 11 9 9 9 10 9 9 8 7 3 4 3 2 4 5 8 6 6 4 4 3 4 5 4 6 5 1 2 5 3 3 4 5 8 9 6 7 5 7 11 14 13 11 10 9 7 6 6
11 12 13 13 13 14 15 15 15 15 16 17 17 17 17 15 15 14 14 14 12 14 13 10 7 3 3 3 10 17 18 9 4 10 7 6 5 5 6 7 12 10 11 10 8 5 5 4 3 5 4 3 2 3 5 11 4 4 4 2 4 4 6 10 6 8 6 3 5 5 5 7 7 9 9 8 10 10 3 12 14 11 10 10 9 7 6 5
12 12 12 13 13 14 15 15 16 15 17 17 18 18 17 16 16 15 15 14 15 14 11 8 4 3 2 7 8 6 11 12 12 10 9 7 8 7 8 7 10 11 10 11 8 2 5 5 2 2 3 5 3 9 12 4 4 2 3 4 4 2 9 9 7 7 12 8 11 5 6 8 6 10 8 10 9 11 6 10 12 10 10 9 8 7 6 6
11 12 12 13 13 14 15 16 16 16 17 18 19 18 17 17 17 16 15 14 13 11 8 4 4 3 1 9 9 19 22 11 10 7 8 9 9 7 9 8 8 8 7 5 3 4 0 4 6 1 3 4 4 5 5 4 1 3 2 4 2 7 11 9 7 10 13 4 8 9 3 10 11 8 10 7 9 7 14 11 10 10 10 10 9 8 7 6
12 12 12 13 13 14 16 16 16 17 17 18 19 19 19 18 16 15 14 13 13 10 6 3 6 6 3 9 7 8 1 3 4 7 6 8 9 8 9 8 4 5 2 2 1 3 2 2 1 1 3 4 6 4 6 4 5 2 4 3 4 6 12 8 8 10 17 6 9 11 4 6 10 5 7 10 9 11 12 10 9 11 8 7 8 7 7 6
12 12 12 13 14 14 16 16 17 17 17 18 20 19 19 18 16 13 12 11 7 4 5 3 5 5 1 2 8 3 8 8 2 5 6 8 9 7 7 4 3 3 2 3 3 2 2 1 1 2 2 3 2 4 4 5 6 5 3 7 8 8 6 6 8 13 16 6 5 7 3 7 11 14 8 12 19 10 14 8 10 9 8 7 7 6 8 7
12 12 12 13 14 14 15 16 17 17 17 17 17 19 16 17 11 9 9 6 5 5 6 7 4 2 11 7 5 10 8 6 7 6 7 8 9 6 7 4 3 5 4 3 4 4 2 2 2 3 1 4 4 4 6 7 6 6 4 6 6 8 10 7 2 5 10 5 10 6 5 11 10 9 11 3 9 9 8 12 13 12 9 10 9 8 7 7
13 12 13 13 14 15 15 17 17 17 16 16 19 20 18 9 3 3 3 3 3 2 1 4 5 6 1 8 18 8 8 9 8 7 9 9 9 5 6 4 5 6 4 3 2 6 2 2 2 2 4 4 7 7 6 8 8 11 8 7 6 5 7 7 9 7 10 6 8 9 7 10 8 5 6 3 4 7 6 7 11 12 10 10 10 9 8 8
13 13 13 14 14 15 16 16 16 17 16 11 10 8 1 3 2 1 3 7 9 9 5 7 13 6 11 11 6 12 8 13 8 8 7 8 7 7 6 7 5 5 4 6 4 8 4 5 5 7 8 8 7 9 10 10 11 12 11 7 2 4 8 11 2 13 8 6 4 5 8 5 6 5 6 0 2 2 4 8 6 11 10 11 10 10 11 12
13 13 14 14 15 15 16 16 15 13 13 9 9 5 2 1 3 2 5 9 15 15 17 10 15 14 10 7 0 9 10 8 5 8 8 7 5 4 4 7 5 6 6 7 6 3 6 6 8 9 10 9 9 8 9 13 11 10 7 6 8 7 8 10 4 14 6 5 5 6 5 1 5 7 6 7 2 3 5 4 4 10 10 10 11 9 11 10
14 14 14 14 15 16 17 17 16 15 9 5 5 4 6 7 4 4 2 6 11 19 16 16 12 15 15 16 16 4 6 6 8 11 5 12 6 7 3 6 6 8 6 7 5 3 5 8 11 12 10 10 11 9 10 11 11 9 5 6 2 6 6 10 2 8 2 3 4 4 2 1 3 4 8 8 5 4 4 8 8 10 10 9 9 11 9 8
14 14 15 15 15 17 17 18 15 14 7 4 5 8 7 8 10 5 4 5 10 10 14 15 14 16 16 15 7 11 9 8 8 10 9 10 7 10 7 8 6 7 8 9 7 4 5 10 14 11 9 10 9 12 10 5 1 1 5 1 4 4 3 5 4 1 1 3 5 4 4 1 2 4 6 6 9 10 6 7 6 11 14 13 14 13 11 12
14 14 15 15 16 16 19 17 18 11 7 10 9 11 9 8 9 8 3 3 6 8 11 13 14 13 14 11 4 3 4 5 7 12 8 10 8 9 4 11 8 7 8 10 12 8 12 11 9 10 11 11 9 9 6 5 4 1 1 4 5 3 5 5 5 5 1 4 4 5 3 1 1 4 4 7 7 5 4 3 5 3 9 10 13 13 13 16
14 15 15 15 16 18 17 20 8 6 5 7 10 14 14 13 12 3 2 3 3 7 6 9 8 10 9 8 3 7 6 3 5 5 10 12 8 7 7 5 4 8 10 9 11 11 13 11 8 15 14 13 13 10 4 6 1 1 2 3 3 9 9 10 10 8 5 7 2 6 0 3 5 6 8 7 6 6 5 8 6 9 4 9 7 12 15 15
14 14 15 15 16 17 19 8 2 7 7 8 8 9 9 11 4 5 2 1 4 3 5 7 8 8 7 9 4 6 8 7 7 4 12 11 8 7 4 6 5 8 12 10 9 5 8 5 8 9 14 12 6 2 3 5 2 1 3 2 5 7 9 8 12 7 2 2 4 3 5 4 3 4 4 6 6 10 7 5 7 8 6 5 7 7 2 10
14 14 14 15 15 15 7 2 8 11 6 2 4 4 2 2 3 1 1 1 2 3 6 2 11 1 1 9 6 4 3 7 6 5 12 11 11 6 4 7 4 4 5 4 3 5 6 8 6 6 3 8 2 1 1 5 6 4 2 6 6 9 9 9 10 6 4 3 4 2 2 2 2 3 3 4 2 5 4 9 13 3 7 10 8 10 5 9
15 15 14 15 15 10 6 9 11 7 7 7 10 10 4 6 3 1 1 0 3 6 6 2 2 2 1 9 8 5 6 3 8 7 10 11 7 6 7 6 7 10 8 4 7 4 10 7 8 6 6 4 7 6 5 7 3 3 5 11 11 3 4 12 5 2 2 1 6 5 4 3 1 3 4 4 10 4 8 11 12 11 12 10 11 10 10 2
14 14 15 14 16 18 11 6 5 8 5 9 12 11 6 4 2 2 1 1 2 2 2 6 4 4 2 10 9 8 11 5 7 7 8 10 11 1 7 11 8 5 6 8 6 4 3 7 9 10 3 1 2 1 1 5 5 6 7 5 5 6 3 2 4 2 5 3 5 4 1 4 4 2 3 4 5 3 4 11 13 11 11 12 11 12 13 15
15 14 14 14 12 8 1 4 9 11 9 11 11 12 6 3 1 2 3 3 3 4 5 2 2 8 7 10 6 10 12 4 3 7 8 7 7 3 3 1 6 7 8 5 10 9 6 5 6 7 5 6 5 7 4 4 9 3 10 9 5 6 2 2 3 3 4 4 2 4 3 2 3 1 5 8 4 1 4 7 8 10 11 12 11 11 12 13
15 15 14 12 6 4 7 6 10 7 9 10 8 6 2 1 2 1 2 4 3 3 4 3 6 9 10 11 7 8 11 6 4 8 7 8 6 5 0 5 3 3 3 3 7 10 10 9 4 1 3 3 3 4 7 7 4 7 1 1 1 6 3 3 2 2 2 4 3 3 5 1 5 5 6 3 3 6 7 7 8 8 10 9 10 10 9 10
15 16 16 9 9 7 5 5 3 9 9 11 9 3 1 3 1 2 4 4 1 5 7 6 9 10 12 10 7 9 8 8 2 10 6 7 5 6 5 5 3 1 4 1 5 6 9 5 2 5 1 8 3 5 4 4 5 1 0 1 1 2 2 2 1 2 4 6 3 4 7 7 1 2 1 4 4 6 8 7 6 7 8 10 12 14 12 9
13 15 19 13 11 9 13 14 12 11 11 11 4 1 1 2 2 6 5 1 2 9 6 12 12 11 12 11 8 12 10 7 6 6 4 7 3 6 6 8 2 5 1 3 3 1 5 4 3 2 4 5 4 2 2 5 1 5 4 3 3 1 0 1 3 3 3 4 4 3 3 1 4 2 4 3 4 6 7 7 8 11 10 10 11 12 13 12
15 16 11 8 8 11 9 8 7 9 9 7 1 1 1 1 4 6 8 7 2 5 5 10 13 11 12 9 7 10 8 7 13 6 7 5 7 4 6 10 9 4 5 0 2 5 2 4 6 4 3 6 6 6 6 5 3 7 5 6 7 4 2 3 3 5 7 5 1 1 2 2 4 1 2 2 2 4 8 10 9 10 10 9 10 12 13 11
19 19 13 10 10 13 14 12 9 10 5 5 1 2 3 6 2 2 4 6 4 8 3 10 11 5 9 10 10 15 9 4 12 9 9 6 6 3 6 7 10 7 1 1 3 0 5 4 4 11 5 10 6 7 6 5 6 3 5 5 2 5 4 6 3 0 0 1 2 1 1 1 5 1 2 2 4 8 8 10 10 10 8 10 12 12 11 11
15 7 5 5 5 6 12 10 9 7 5 2 1 2 6 4 2 2 1 6 8 4 3 4 3 3 0 3 4 5 15 3 14 7 7 8 9 8 6 4 7 11 3 5 3 2 1 3 2 4 8 11 11 10 7 4 2 2 2 4 8 6 3 1 3 5 5 3 3 3 5 3 3 6 8 7 10 11 11 11 12 11 11 11 11 10 10 9
8 9 4 5 8 6 9 10 8 7 4 3 1 4 2 5 8 12 4 9 6 8 1 4 1 0 3 3 3 3 7 2 10 7 3 8 4 9 8 8 10 11 12 5 4 1 4 4 3 3 3 5 6 9 8 9 6 2 2 6 5 8 6 3 4 1 2 3 3 5 4 2 0 1 7 10 10 9 10 11 10 11 12 12 9 9 10 12
8 7 8 9 11 8 10 11 9 5 3 1 2 4 3 5 10 4 4 8 10 3 2 2 1 7 2 5 4 6 6 3 5 5 2 9 1 4 4 2 9 3 8 12 3 2 4 1 2 5 5 4 9 1 1 4 7 7 8 1 1 0 2 4 1 2 0 1 1 2 9 3 5 0 3 7 7 7 7 9 12 14 13 11 10 11 12 12
6 4 5 7 7 12 11 12 8 4 2 2 2 2 5 8 11 2 2 5 2 4 3 1 1 2 2 2 3 8 9 3 4 3 3 1 2 6 6 5 6 11 14 7 2 3 1 2 4 1 3 1 3 6 2 1 4 7 3 6 2 4 4 1 3 2 4 2 1 2 9 0 3 1 1 4 4 5 8 10 10 12 12 12 12 12 12 10
4 2 3 1 10 13 12 9 4 3 2 3 4 4 4 9 3 6 5 6 3 3 1 5 9 4 3 4 3 3 7 9 6 2 3 2 4 5 7 9 5 6 7 7 4 5 2 3 2 4 6 6 4 1 3 1 2 3 1 4 2 2 4 6 0 2 2 1 2 2 2 1 3 4 3 3 6 8 9 10 10 9 11 13 14 13 13 15
4 2 4 3 11 11 10 5 3 5 4 4 6 8 11 7 4 6 5 3 2 1 1 4 3 1 4 7 8 7 3 1 3 4 3 3 5 0 4 7 5 5 3 9 10 4 3 5 0 4 4 4 2 2 2 2 7 6 4 5 5 5 5 1 4 5 2 2 1 1 2 1 0 2 4 6 6 8 9 10 9 10 11 10 10 12 13 14
3 1 4 2 13 11 7 5 3 3 3 4 3 4 5 3 1 6 2 1 1 2 3 1 5 4 3 5 8 3 4 3 6 7 7 4 4 4 3 5 7 8 4 2 1 1 2 1 3 1 1 2 5 8 9 5 6 9 7 4 5 3 3 5 2 4 3 1 5 3 5 2 3 2 4 5 7 8 5 5 7 8 8 9 10 12 13 14
2 3 8 9 6 10 5 2 3 3 4 5 10 13 3 3 4 4 2 2 1 2 3 1 3 5 5 5 6 5 8 5 7 5 4 5 3 6 4 6 8 7 3 3 3 3 2 3 4 4 3 6 10 9 12 6 6 6 6 3 5 4 3 4 3 2 2 4 4 4 4 3 6 1 5 6 5 4 5 8 10 9 7 9 11 12 13 12
1 1 4 4 6 7 2 2 3 4 4 9 9 5 5 5 2 2 3 1 1 1 2 1 1 2 3 6 4 4 6 2 4 8 4 2 2 5 8 10 8 3 3 1 2 5 2 2 4 2 3 6 9 8 9 11 9 3 2 4 5 4 3 0 3 2 4 2 1 6 3 2 2 3 7 6 7 9 10 11 11 10 8 9 10 10 10 11
1 1 2 4 4 3 4 1 2 1 2 4 4 4 2 2 5 3 1 3 2 1 1 0 5 3 1 1 3 2 4 4 3 4 7 1 2 2 5 4 5 5 5 3 6 3 6 1 2 1 2 0 0 1 2 5 7 5 4 5 6 6 3 2 1 2 3 0 3 3 3 2 5 6 9 7 7 10 11 12 11 10 10 11 12 11 12 12
0 1 1 2 1 2 4 2 3 3 3 5 1 2 2 0 3 3 9 8 7 4 5 4 5 1 3 8 7 3 3 3 3 1 2 2 3 2 3 9 7 4 4 4 4 4 2 2 3 4 4 5 3 4 4 2 2 4 8 11 7 6 5 4 5 4 3 1 4 0 6 8 7 8 7 8 9 11 11 12 12 12 13 12 12 12 11 11
1 1 2 2 2 4 4 2 3 2 3 2 1 1 3 3 0 0 6 2 5 5 5 1 3 1 2 6 3 5 5 7 13 6 4 8 3 3 10 9 6 5 4 2 2 2 2 3 1 5 4 6 7 7 4 5 1 9 5 3 8 8 5 7 4 2 2 5 2 1 7 8 6 8 7 7 9 10 10 10 10 11 11 11 11 11 12 12
0 2 4 2 1 2 1 6 6 5 11 5 2 1 3 3 0 2 1 2 3 3 2 1 3 4 1 6 3 0 2 4 7 3 9 10 5 5 8 5 4 3 2 3 7 4 2 2 1 4 4 7 11 9 7 6 7 5 9 8 9 9 11 10 6 2 1 2 6 4 3 7 7 8 8 9 10 10 10 10 9 9 10 11 11 12 12 12
2 2 2 4 2 4 7 9 7 12 11 5 0 2 1 4 4 2 2 0 2 1 1 1 4 4 11 2 5 1 1 2 3 4 3 2 3 3 3 4 6 5 4 3 5 4 3 2 4 3 2 1 2 4 8 12 10 13 10 11 11 12 12 11 10 9 10 9 9 10 12 11 7 8 9 9 9 9 8 7 9 11 12 11 12 13 13 13
1 1 1 4 2 3 8 9 3 3 2 2 1 4 2 2 3 4 2 1 1 2 2 2 7 4 10 3 4 4 3 6 5 3 3 2 3 2 2 3 1 1 4 3 2 4 4 1 4 2 1 2 5 11 14 14 14 13 12 10 11 10 11 11 10 11 8 9 8 10 10 10 7 9 9 9 10 9 9 11 11 11 12 12 12 12 12 12
2 1 1 1 4 6 10 4 4 1 2 1 0 1 5 4 3 6 7 5 2 1 6 6 8 8 5 13 12 9 4 7 3 3 2 1 2 1 3 2 2 1 1 3 1 1 2 1 1 2 2 1 4 14 13 13 15 14 10 10 10 8 9 8 8 6 6 3 3 7 6 3 6 8 10 10 11 12 12 11 10 10 12 11 11 11 11 12
3 4 3 1 1 6 1 3 2 4 1 2 1 2 2 7 3 5 3 5 6 6 5 7 5 7 6 11 10 4 5 7 7 3 3 5 4 5 2 1 3 3 3 2 2 4 2 1 1 1 2 1 5 9 10 4 4 5 8 8 6 11 10 10 11 13 11 5 4 4 5 5 7 7 11 10 11 11 11 10 9 10 10 10 10 10 10 10
Wind_Direction
325 328 327 325 329 326 325 324 324 327 328 329 329 331 330 331 332 333 331 332 330 329 329 329 329 328 329 330 330 329 328 323 309 301 249 239 230 208 153 149 159 168 168 163 245 216 184 208 231 245 248 234 227 243 247 262 248 204 209 211 247 238 257 250 286 89 196 82 24 56 5 358 41 345 355 4 48 86 79 65 53 67 72 104 115 128 137 145
327 325 324 325 326 326 324 324 325 325 327 327 329 328 329 328 328 330 332 332 331 328 329 328 328 330 330 331 331 328 330 304 290 272 243 238 211 160 142 140 146 164 167 163 212 213 190 205 224 223 225 234 207 227 197 237 229 206 220 192 243 221 246 267 313 84 72 72 99 338 76 5 359 14 359 1 348 102 107 87 94 92 85 101 118 129 137 149
325 323 321 323 325 325 324 324 325 326 327 326 326 327 328 326 326 327 331 330 328 328 327 327 328 329 330 329 328 331 327 303 280 260 263 222 197 164 154 150 156 163 168 181 214 212 210 203 205 211 211 239 220 232 200 232 207 213 202 233 242 234 258 284 42 69 67 22 26 10 40 60 326 1 305 20 321 83 108 106 71 92 121 123 135 142 145 148
323 320 320 322 325 324 324 324 325 325 325 325 324 325 326 326 324 326 329 329 327 327 326 325 327 328 328 327 327 325 307 276 278 259 338 185 157 157 159 160 160 175 194 221 221 224 229 239 222 200 211 216 242 230 216 216 211 185 207 231 259 303 303 298 8 57 62 66 23 343 6 331 317 84 4 337 344 77 132 152 146 148 152 149 153 150 145 147
321 320 319 321 323 324 323 325 324 324 324 323 323 323 325 325 323 324 326 328 326 324 324 325 326 326 327 326 323 323 309 16 283 49 66 104 137 150 161 164 165 173 192 219 287 289 280 270 246 205 214 229 238 246 235 209 196 184 209 219 232 254 270 263 72 90 75 82 66 310 285 285 304 35 45 278 263 164 169 163 155 155 155 152 154 150 146 153
320 320 319 319 322 324 323 323 323 323 323 321 321 320 324 323 321 321 325 326 325 322 322 325 326 327 327 325 311 297 311 146 38 145 144 152 136 146 144 152 159 172 176 219 244 265 265 252 249 231 203 231 260 247 244 237 169 230 260 247 233 240 269 288 334 117 95 72 53 351 288 316 23 335 289 318 253 166 147 154 155 154 153 147 143 145 154 142
320 319 320 320 320 322 322 320 322 321 321 319 318 319 321 323 319 320 323 325 322 321 320 324 326 329 330 321 281 226 255 278 313 164 141 161 149 141 139 139 139 154 181 202 225 243 249 246 239 228 218 241 250 250 250 220 219 241 257 233 248 249 245 260 295 100 94 69 322 245 359 360 17 321 301 282 341 134 139 141 138 142 133 137 145 156 156 138
316 319 320 320 320 319 320 321 319 319 318 318 315 316 319 320 319 319 322 323 322 318 320 322 326 329 336 340 330 197 188 254 250 136 145 151 153 141 140 135 150 160 190 210 217 225 246 243 231 233 249 200 226 232 252 261 207 214 246 262 279 289 269 288 275 285 76 180 195 262 293 273 290 244 304 273 271 147 139 144 147 139 138 138 134 149 147 141
315 316 319 320 318 318 318 319 319 317 317 315 313 314 316 317 317 318 320 320 319 317 318 320 323 326 327 298 296 326 241 228 202 140 141 158 168 154 160 141 172 175 190 219 233 253 259 232 241 223 215 228 248 256 262 240 251 212 247 241 242 252 274 260 283 263 145 100 164 335 243 252 238 247 251 257 268 134 135 149 146 138 135 141 154 160 164 156
314 317 316 318 317 315 316 316 317 316 314 311 311 311 313 315 313 314 315 316 314 314 316 318 318 324 318 295 277 246 259 107 114 142 155 177 156 166 194 144 170 182 197 215 237 239 243 226 222 219 248 276 275 279 291 277 236 193 221 233 252 264 274 280 261 226 198 195 182 207 232 245 249 202 263 239 254 140 150 148 155 150 147 150 161 168 172 162
314 315 316 315 315 314 315 315 316 315 311 308 307 310 310 312 310 310 313 312 313 312 315 317 313 318 307 297 269 242 261 113 150 150 176 170 161 167 193 157 173 185 209 235 232 234 243 252 237 258 237 232 329 271 261 234 295 305 301 288 277 282 293 305 306 291 29 223 182 252 277 277 289 218 225 236 229 215 156 160 160 144 142 155 161 161 181 175
311 316 315 314 316 314 313 314 314 314 309 307 307 307 310 308 308 309 309 309 309 311 314 313 321 290 266 265 242 236 256 107 172 166 168 164 186 191 195 172 171 198 203 225 237 237 241 253 269 280 232 24 282 297 283 316 290 275 310 303 273 281 278 264 261 273 196 240 174 188 261 257 223 240 252 239 253 238 156 157 146 146 146 148 153 155 169 195
312 313 315 314 313 313 312 312 313 311 309 305 305 306 307 307 306 305 305 305 306 309 308 308 309 258 288 309 234 233 249 265 239 161 143 178 198 208 213 197 177 205 220 234 245 243 253 273 328 333 330 325 291 226 317 294 273 261 276 269 326 318 286 246 226 230 232 216 201 143 252 264 238 238 237 222 227 245 155 143 138 141 131 137 145 156 169 164
310 310 315 312 314 312 311 311 312 310 307 306 305 305 305 306 303 303 302 300 302 302 297 288 272 285 245 248 266 267 237 241 250 161 163 184 195 206 221 224 190 201 223 244 275 354 340 323 305 313 344 292 297 354 334 304 297 217 232 203 222 297 257 241 220 201 220 192 204 138 237 270 251 242 238 234 221 223 155 156 143 141 139 144 152 162 159 110
310 311 313 314 314 313 310 311 309 307 307 306 304 304 304 302 299 297 299 298 297 293 305 302 227 225 159 266 259 259 251 255 212 178 166 176 205 187 220 221 211 212 228 247 307 329 324 330 3 11 280 290 283 290 289 286 290 249 321 297 292 196 260 261 220 193 210 178 138 122 235 258 252 248 250 244 234 235 137 156 147 148 154 158 159 153 148 137
311 310 312 313 314 312 310 310 307 307 307 306 305 304 300 295 292 293 293 290 293 286 274 244 202 215 316 285 268 325 320 231 203 181 175 189 201 208 200 203 198 233 273 291 312 301 304 34 303 226 275 294 280 257 275 323 299 238 170 240 243 211 249 276 236 192 197 167 154 144 197 298 286 222 243 222 213 213 147 144 163 161 156 150 158 147 129 124
311 309 311 314 315 314 310 307 306 306 308 309 309 303 296 285 282 284 286 286 289 241 210 212 154 195 140 244 344 244 201 208 207 202 170 209 202 204 180 178 198 204 223 283 205 275 294 177 146 307 267 249 213 231 249 277 281 287 192 216 220 232 253 264 253 182 186 157 149 137 183 236 262 290 294 296 192 127 150 156 158 160 161 157 163 146 144 147
309 312 312 315 313 313 309 306 306 309 311 313 313 299 289 281 275 287 294 255 225 237 224 252 287 195 272 270 287 217 193 178 209 199 191 188 225 198 173 189 152 218 171 244 228 207 162 227 136 211 206 235 246 232 188 224 210 234 224 216 255 252 248 248 298 171 165 144 150 157 191 252 250 275 290 4 91 129 132 164 161 174 166 167 162 167 157 157
311 312 315 314 313 311 309 306 307 311 315 320 308 289 270 259 259 184 279 181 155 103 340 200 163 158 161 196 218 249 195 178 190 182 190 185 216 222 181 176 163 198 176 192 221 201 160 249 166 233 258 228 228 220 202 231 238 242 228 195 224 260 267 227 205 181 171 153 154 160 191 248 258 262 287 322 172 143 164 153 173 175 171 167 167 162 166 172
312 311 312 313 313 311 310 306 308 313 323 323 330 320 28 68 75 51 214 238 243 218 246 171 201 255 301 301 184 215 217 153 180 199 180 192 185 222 221 162 181 206 182 188 185 198 135 180 204 207 222 226 226 229 237 243 244 258 272 280 273 292 284 274 222 165 165 136 172 174 211 220 282 291 296 316 8 339 192 199 175 176 170 172 168 170 173 181
309 311 312 314 312 313 307 308 309 312 322 323 312 303 178 299 347 138 189 218 223 237 250 242 205 222 241 290 357 167 132 163 204 173 208 157 204 172 196 161 181 200 218 205 199 207 157 178 230 218 216 229 239 224 232 253 268 271 290 306 301 297 282 299 175 169 143 106 220 190 189 301 297 309 303 311 338 212 230 242 242 167 172 167 166 173 183 186
310 313 314 314 314 311 309 307 311 310 319 314 280 260 288 277 259 288 210 260 226 228 236 242 232 243 251 256 261 178 147 155 216 170 200 161 185 183 173 187 183 209 199 231 244 156 195 199 222 221 216 222 236 236 224 227 240 257 260 267 350 285 319 302 184 163 95 94 206 146 94 274 278 283 302 311 272 243 189 173 201 164 178 171 173 179 168 171
312 315 315 315 315 312 311 309 305 313 305 261 224 225 253 245 285 341 329 273 275 233 224 227 231 242 254 257 255 156 162 192 186 175 175 176 148 205 151 192 197 220 192 203 215 169 206 241 218 209 221 224 234 235 232 233 288 65 6 299 238 268 337 299 333 291 333 155 203 147 130 256 282 303 291 271 272 279 259 248 200 175 176 187 187 183 166 177
313 315 315 316 317 316 312 313 307 295 226 214 235 228 243 276 296 317 5 249 302 283 221 215 211 227 242 240 173 192 208 171 197 178 156 175 184 183 222 182 206 216 224 197 212 201 214 223 194 207 224 226 232 241 236 156 256 339 222 287 303 317 288 274 274 301 260 286 128 107 112 333 291 285 302 287 271 299 294 242 278 222 210 190 189 193 167 174
312 315 315 316 319 318 318 315 300 230 225 209 237 243 247 260 276 329 72 301 235 257 227 226 191 218 231 226 156 195 178 277 244 171 156 181 171 155 225 182 208 210 227 218 209 227 243 236 192 195 219 218 227 244 188 113 17 335 253 202 259 287 294 306 315 335 12 346 312 111 328 288 247 225 236 255 290 285 254 263 260 274 209 221 197 190 191 184
311 313 316 317 319 323 317 306 253 343 298 246 236 247 216 232 251 57 3 301 290 252 141 217 143 210 208 194 171 192 143 220 222 223 160 180 193 193 170 235 177 203 215 230 216 217 242 230 222 209 204 215 216 158 160 102 176 10 262 255 243 246 269 283 290 305 337 275 284 108 201 275 312 247 264 272 274 266 280 270 256 246 353 13 14 5 18 204
310 312 315 318 318 327 332 251 360 314 277 261 292 267 22 75 7 29 24 265 354 213 162 40 161 230 173 163 159 119 161 237 198 214 166 172 196 192 206 213 169 250 225 213 221 244 220 236 256 249 146 118 121 169 212 133 148 226 254 267 243 232 238 237 240 240 241 266 288 355 141 190 284 286 263 263 233 232 311 314 270 122 56 52 32 32 50 187
307 310 313 313 313 314 272 302 320 310 254 297 315 332 1 31 342 65 132 41 273 169 148 203 233 359 245 145 156 173 225 149 177 196 170 162 204 171 225 213 200 202 233 241 199 257 198 209 229 246 224 144 173 193 180 175 174 205 215 228 252 228 252 248 232 247 224 32 287 340 4 350 239 269 277 248 273 24 47 42 36 52 47 43 39 35 40 75
307 309 312 313 312 299 271 248 283 268 264 326 315 312 20 342 49 87 129 140 197 115 17 129 316 125 220 153 176 206 234 182 188 161 153 163 197 174 199 240 270 274 230 220 223 260 220 201 200 225 111 171 196 334 152 173 188 226 233 254 279 276 288 162 103 52 353 24 289 289 257 269 286 275 314 262 253 43 30 55 45 25 41 45 47 53 54 57
305 309 309 314 319 297 276 187 229 251 297 300 302 306 332 354 327 61 63 273 194 201 191 78 235 178 182 160 186 196 237 218 226 159 157 158 202 219 270 240 237 247 264 256 245 239 265 267 192 186 152 188 200 207 210 215 227 202 207 227 257 288 271 349 54 48 22 319 240 235 222 163 290 296 16 32 5 93 67 31 41 38 30 42 45 52 58 64
306 304 305 309 291 307 321 276 247 244 274 296 280 295 342 342 136 146 137 237 206 102 118 128 147 170 159 170 181 191 226 234 185 161 164 157 176 203 255 290 263 326 301 248 237 245 251 257 245 68 85 19 160 162 182 246 261 208 125 164 17 328 10 41 1 45 251 274 261 282 288 183 223 336 4 76 54 54 74 61 36 35 34 34 40 34 31 62
305 302 298 292 271 280 260 236 53 339 320 318 316 24 318 95 19 158 213 64 84 174 181 179 179 174 181 180 192 174 201 234 181 167 169 163 157 179 191 199 179 204 308 240 271 246 253 246 143 152 110 94 5 20 318 250 235 59 50 23 104 277 53 339 49 254 207 226 239 225 241 282 4 98 335 60 48 44 55 64 47 42 44 41 44 37 25 27
302 299 295 281 270 253 244 257 303 309 305 311 325 281 108 105 204 236 258 256 222 171 188 174 171 179 178 181 208 176 191 218 145 166 147 160 161 191 180 212 195 150 188 244 262 244 260 241 295 271 157 158 124 133 295 317 250 148 168 154 137 197 127 222 239 199 257 251 228 206 2 144 193 96 356 39 45 54 66 66 58 52 41 43 48 43 43 41
303 301 290 264 254 241 252 258 272 293 311 309 267 239 45 112 244 220 235 252 239 232 257 185 160 178 172 190 204 166 191 205 154 166 176 164 185 178 198 210 237 203 201 293 203 198 229 225 247 233 237 149 165 174 185 217 191 206 162 162 170 152 152 193 193 206 210 210 246 219 122 241 136 244 272 34 31 64 62 65 63 56 43 35 42 45 44 47
304 293 268 267 246 241 235 242 252 263 283 296 233 168 134 225 276 268 235 262 234 225 186 123 159 166 178 203 201 174 184 164 167 158 175 149 193 191 181 203 216 231 200 122 249 53 219 207 208 202 223 152 168 196 193 249 305 246 181 128 142 223 165 225 202 201 189 51 2 352 128 71 117 220 1 37 49 47 53 51 52 53 44 37 40 37 33 33
301 283 234 234 213 234 203 211 224 236 242 259 172 152 222 206 207 230 275 297 236 189 160 85 49 178 250 214 298 197 180 185 169 168 175 182 171 192 191 181 200 207 189 182 198 230 285 276 191 202 204 166 177 160 207 185 194 279 61 187 201 185 180 224 312 260 123 63 231 170 77 38 84 30 359 15 34 24 30 33 36 34 33 41 43 39 31 28
309 309 274 224 218 206 170 180 184 197 212 252 185 232 250 277 246 272 7 335 322 339 67 85 223 11 181 227 204 231 180 157 166 179 170 178 183 191 195 194 186 191 218 192 285 226 142 239 235 252 249 172 185 176 177 165 191 253 299 251 214 189 194 162 222 297 191 160 251 151 160 147 283 286 321 9 24 14 27 28 26 34 34 37 34 37 35 30
318 292 272 265 244 180 159 172 177 189 219 262 238 268 297 292 282 330 21 358 346 357 352 85 307 199 221 196 209 183 139 143 170 162 355 172 22 26 22 276 175 237 213 205 151 264 208 290 240 175 260 267 200 177 249 191 177 171 216 138 77 331 245 313 154 248 186 242 242 105 96 101 60 160 349 356 17 5 21 33 30 25 25 26 30 39 44 32
286 283 307 238 198 156 155 171 182 171 185 220 252 251 240 236 261 61 20 344 269 352 35 320 319 250 309 335 219 152 154 159 151 134 106 322 263 328 28 357 17 20 15 12 134 285 138 138 301 334 188 265 166 135 263 293 219 209 240 288 209 128 162 195 185 201 124 232 103 284 88 333 44 102 299 319 9 12 40 41 37 29 22 18 21 32 40 37
273 264 241 319 131 140 155 159 162 196 230 217 213 231 266 260 188 54 56 16 355 1 339 10 345 322 330 264 347 20 166 135 152 148 102 334 115 230 34 355 4 38 22 49 87 37 4 86 179 287 2 329 223 102 181 132 0 341 250 246 314 259 204 164 183 178 150 176 168 176 55 319 339 333 10 26 20 34 48 54 42 34 28 26 29 28 27 31
233 288 272 260 120 125 131 152 180 207 210 272 273 271 280 298 65 64 32 339 324 236 149 334 304 352 316 17 4 51 20 50 142 122 112 49 47 9 356 7 337 27 14 39 44 8 61 16 65 311 16 356 318 64 148 68 85 93 47 36 6 47 19 305 273 0 11 29 306 51 181 230 269 346 351 39 42 38 40 58 51 36 32 29 36 37 33 32
282 194 263 89 120 129 143 155 244 200 243 247 232 254 281 271 144 93 280 95 209 286 161 204 316 312 334 39 360 21 29 356 63 68 36 92 23 86 317 16 38 39 71 75 27 12 129 172 89 351 254 265 296 2 7 359 54 80 67 63 71 64 84 87 102 280 22 58 119 127 114 274 316 331 27 42 60 54 42 66 68 52 35 32 41 45 43 38
186 282 272 304 152 152 152 261 216 219 230 253 268 258 273 264 15 45 318 99 274 5 17 9 352 6 14 23 17 358 55 34 54 59 95 74 61 11 47 29 28 36 67 359 28 339 33 49 14 319 333 340 347 2 1 358 43 57 41 67 60 55 124 152 168 199 115 335 54 26 63 255 277 350 62 51 40 65 52 39 52 49 40 43 41 40 39 36
12 238 294 227 180 178 195 207 227 228 242 257 262 298 25 348 269 55 342 151 284 158 2 343 334 21 1 25 350 354 15 79 73 95 71 80 95 289 38 40 42 30 42 298 97 276 54 334 112 44 354 345 349 357 6 349 31 35 353 59 74 77 58 110 99 36 81 19 348 116 182 195 205 107 90 71 51 39 38 40 37 37 36 42 45 40 37 33
276 241 218 294 195 221 227 238 307 339 292 275 266 273 82 318 37 37 277 260 239 10 120 142 42 6 13 28 313 10 339 59 108 70 118 77 110 90 24 89 88 66 35 96 61 95 93 170 88 114 137 174 285 13 307 305 326 304 324 39 59 61 84 57 66 1 90 228 74 100 128 149 98 74 59 51 44 44 31 27 26 30 34 35 36 33 32 27
219 105 222 196 268 210 276 309 299 303 315 280 331 302 256 86 43 314 20 340 48 16 42 19 0 358 11 15 0 21 335 76 97 149 108 86 132 79 127 76 69 75 89 57 26 51 115 106 93 142 137 165 187 206 228 147 317 22 292 16 26 36 20 91 99 81 145 188 81 282 142 134 96 52 46 46 49 49 40 29 21 23 31 37 37 34 29 27
339 259 133 199 147 243 266 270 256 220 233 228 107 275 268 109 141 318 25 310 25 7 357 23 322 350 76 52 1 359 3 9 15 359 1 146 150 136 94 84 67 82 71 48 51 81 70 60 134 113 154 180 187 208 185 136 46 357 32 30 41 47 55 66 89 169 166 97 42 317 135 123 91 66 46 43 50 54 47 36 27 29 32 36 37 35 32 32
74 287 326 234 179 219 357 293 228 274 270 239 220 214 224 103 23 39 323 338 21 37 17 19 217 5 29 132 125 74 5 13 44 17 2 32 74 42 97 98 86 88 103 40 37 65 101 80 4 142 203 198 185 204 194 111 99 112 61 54 48 47 49 63 37 43 87 123 183 164 106 97 83 68 61 48 49 52 46 38 34 33 34 37 38 35 32 30
217 324 278 303 52 280 210 222 203 205 219 200 103 351 302 144 124 157 198 240 247 170 100 40 319 288 282 198 117 156 62 81 354 27 17 3 38 68 50 73 28 41 42 65 43 29 35 109 194 248 314 265 211 143 109 98 87 56 48 65 59 49 53 50 47 33 58 64 75 90 83 77 64 59 50 49 53 56 54 46 41 38 34 36 39 35 32 29
221 79 308 14 349 282 273 248 221 136 51 353 65 259 102 38 129 143 32 44 21 335 64 113 245 355 343 42 118 109 156 118 134 70 327 37 8 57 145 120 143 324 91 51 93 344 90 303 62 41 55 340 51 49 77 84 76 60 29 37 60 68 58 47 44 23 32 58 86 86 83 85 67 63 58 48 44 42 46 45 43 38 36 36 39 38 33 33
284 258 104 32 311 257 219 199 133 147 85 333 106 262 131 161 198 169 103 49 113 136 25 19 21 23 22 50 47 50 50 115 98 94 300 129 87 70 116 276 143 172 52 86 64 3 67 227 160 115 64 344 100 103 101 87 78 72 34 27 44 45 52 32 47 13 25 52 100 108 79 77 85 74 66 51 47 41 37 39 43 41 39 37 39 35 34 31
281 246 209 165 265 281 328 201 126 103 97 240 168 23 337 170 85 65 35 20 32 67 54 11 15 57 23 54 47 32 6 33 30 16 310 346 1 356 27 143 158 153 185 104 129 118 164 116 54 97 87 187 119 122 118 121 83 37 20 353 55 76 84 64 43 29 16 356 79 72 77 71 78 77 74 54 50 45 37 33 43 47 41 41 37 32 29 28